星链-35840(STARLINK-35840)

导读

STARLINK-35840是美国SpaceX公司星链(Starlink)星座的成员,于2025年12月31日发射。该卫星运行于低轨轨道,采用平板设计搭配太阳电池阵,搭载Ku/Ka波段通信载荷,依托霍尔推进器实现轨道调控与末期离轨。它具备自主避撞能力,通过星间链路提供全球宽带服务,可支撑手机直连等多场景通信,设计寿命约5至7年,退役后将在大气层完全焚毁,保障太空环境安全。

Basic Information
目录编号:
66834
目录名称:
STARLINK-35840
国际标识:
2025-280P
轨道中心:
EARTH
卫星名称:
星链-35840
卫星全名:
星链-35840(STARLINK-35840)
卫星状态:
在轨 (已飞行193 天)
发射日期:
2025-12-02 UTC
国别 :
美国 (US)
星等 :
--
Orbit Information
数据来源 国际轨道数据 AOE轨道数据
星历时间 2026-06-13T04:14:12+0800
14小时前
查看轨道信息
2026-06-08T03:00:00+0800
5天前
查看轨道信息
半长轴 6950.214km 6950.175km
偏心率 0.0002521 0.0002836
轨道倾角 70.002° 69.999°
近地点辐角 279.696° 268.019°
升交点赤经 94.357° 107.092°
平近点角 80.392° 211.911°
近地点 570.324km 570.066km
远地点 573.83km 574.01km
周期 96.107分钟 96.107分钟
每日圈数 14.983233 14.98336
Detailed Information
固有亮度:
5
最大亮度:
2.5
卫星平台:
Starlink V1.0
覆盖范围:
全球
运营商:
太空探索技术公司
运营商所在国:
美国
制造商(研发单位):
太空探索技术公司
制造商所在国:
美国
使用方式:
暂无
Satellite Introduction
Starlink 计划是 SpaceX 推出的全球卫星互联网项目,通过发射低轨道卫星,为全球尤其是偏远地区提供高速、低延迟的互联网服务。自 2019 年起,Starlink 已部署数千颗卫星,旨在缩小全球数字鸿沟,推动互联网普及。该项目还为军事、航空等行业提供通信支持,带来广泛经济效益。
2D Orbit Map
3D Orbit Map
Orbit Altitude Analysis Chart
Orbit Inclination Analysis Chart
Orbit Comprehensive Analysis Chart
View Comprehensive Chart